TimeMDT,TemperatureF,Dew PointF,Humidity,Sea Level PressureIn,VisibilityMPH,Wind Direction,Wind SpeedMPH,Gust SpeedMPH,PrecipitationIn,Events,Conditions,WindDirDegrees,DateUTC
12:54 AM,46.9,21.9,37,29.99,10.0,South,6.9,-,N/A,,Clear,170,2012-11-01 06:54:00
1:54 AM,45.0,21.9,40,29.97,10.0,South,4.6,-,N/A,,Clear,170,2012-11-01 07:54:00
3:54 AM,43.0,23.0,45,29.94,10.0,SSW,4.6,-,N/A,,Clear,200,2012-11-01 09:54:00
4:54 AM,41.0,23.0,49,29.93,10.0,SSE,8.1,-,N/A,,Clear,160,2012-11-01 10:54:00
5:54 AM,42.1,24.1,49,29.94,10.0,SSE,8.1,-,N/A,,Clear,150,2012-11-01 11:54:00
7:54 AM,43.0,23.0,45,29.96,10.0,Calm,Calm,-,N/A,,Clear,0,2012-11-01 13:54:00
8:54 AM,43.0,25.0,49,29.98,10.0,SSE,5.8,-,N/A,,Clear,150,2012-11-01 14:54:00
9:54 AM,48.0,27.0,44,29.95,10.0,SSE,4.6,-,N/A,,Clear,160,2012-11-01 15:54:00
10:54 AM,51.1,-9999,N/A,29.95,-9999.0,North,-9999.0,-,N/A,,Unknown,0,2012-11-01 16:54:00
11:54 AM,52.0,27.0,38,29.94,10.0,WNW,4.6,-,N/A,,Clear,300,2012-11-01 17:54:00
12:54 PM,55.0,25.0,31,29.90,10.0,West,8.1,-,N/A,,Clear,280,2012-11-01 18:54:00
1:54 PM,60.1,15.1,17,29.86,10.0,West,15.0,-,N/A,,Clear,260,2012-11-01 19:54:00
2:54 PM,60.1,15.1,17,29.85,10.0,West,13.8,-,N/A,,Clear,280,2012-11-01 20:54:00
4:54 PM,57.0,16.0,20,29.88,10.0,West,15.0,-,N/A,,Clear,270,2012-11-01 22:54:00
5:54 PM,54.0,15.1,22,29.91,10.0,West,15.0,-,N/A,,Mostly Cloudy,280,2012-11-01 23:54:00
6:54 PM,52.0,19.0,27,29.96,10.0,WNW,10.4,-,N/A,,Overcast,290,2012-11-02 00:54:00
7:54 PM,50.0,23.0,35,29.96,10.0,West,11.5,-,N/A,,Overcast,280,2012-11-02 01:54:00
8:54 PM,48.9,25.0,39,29.97,10.0,West,6.9,-,N/A,,Overcast,260,2012-11-02 02:54:00
9:54 PM,48.0,26.1,42,29.95,10.0,SSW,6.9,-,N/A,,Partly Cloudy,210,2012-11-02 03:54:00
10:54 PM,46.9,26.1,44,29.96,10.0,WSW,6.9,-,N/A,,Scattered Clouds,250,2012-11-02 04:54:00
11:54 PM,46.0,27.0,47,29.96,10.0,WSW,11.5,-,N/A,,Overcast,250,2012-11-02 05:54:00